Language: 


Des rapports , des résumés tant et plus, au choix de chacun....


Données statistiques de la station
Quotidien Rapport Aout 12, 2017 Unités:  Métrique    Anglais   les deux
« Précédent Jour
Suivant Jour »
Quotidien Hebdomadaire Mensuel Annuel Actuel
  Haut: Bas: Moyen:
Température: 22.0 °C 0.0 °C 17.7 °C
Pt de rosée: 20.0 °C 13.0 °C 16.3 °C
Humidité: 98 % 0 % 91 %
Vitesse du vent: 29.9 km/h 0.0 km/h 8.9 km/h
Rafales: 29.9 km/h - -
Vent:- - WSW
Pression: 1018.2 hPa 0.0 hPa -
Précipitation: 2.3 mm    
Historical Graphs
 
 
Données statistiques pour Aout 12, 2017
Heure Température Point de rosée Pression Vent Vitesse du vent Refales Humidité Pluie (taux horaire)
00:03 13.7 °C 13.0 °C 1016.8 hPa WSW 6.9 km/h 12.6 km/h 91 % 0.0 mm
00:08 13.7 °C 13.0 °C 1016.8 hPa West 7.2 km/h 12.2 km/h 92 % 0.0 mm
00:13 13.7 °C 13.0 °C 1016.8 hPa WSW 9.0 km/h 10.5 km/h 92 % 0.0 mm
00:18 13.7 °C 13.0 °C 1016.8 hPa WSW 7.6 km/h 10.5 km/h 92 % 0.0 mm
00:23 13.6 °C 13.0 °C 1016.8 hPa WSW 9.0 km/h 9.7 km/h 92 % 0.0 mm
00:28 13.6 °C 13.0 °C 1016.8 hPa WSW 7.9 km/h 9.7 km/h 93 % 0.0 mm
00:34 13.6 °C 13.0 °C 1016.8 hPa WSW 7.6 km/h 9.7 km/h 93 % 0.0 mm
00:39 13.6 °C 13.0 °C 1016.8 hPa SW 6.4 km/h 10.1 km/h 93 % 0.0 mm
00:44 13.7 °C 13.0 °C 1016.8 hPa Calm   10.1 km/h 93 % 0.0 mm
00:49 13.7 °C 13.0 °C 1016.8 hPa WSW 1.4 km/h 9.7 km/h 93 % 0.0 mm
00:54 13.8 °C 13.0 °C 1016.8 hPa Calm   6.9 km/h 94 % 0.0 mm
00:59 14.0 °C 13.0 °C 1016.8 hPa Calm   5.5 km/h 94 % 0.0 mm
01:04 14.1 °C 13.0 °C 1016.8 hPa Calm   6.4 km/h 94 % 0.0 mm
01:09 14.2 °C 13.0 °C 1016.8 hPa SW 5.8 km/h 6.4 km/h 94 % 0.0 mm
01:14 14.3 °C 13.0 °C 1016.8 hPa WSW 4.7 km/h 6.4 km/h 94 % 0.0 mm
01:19 14.4 °C 13.0 °C 1016.8 hPa Calm   9.3 km/h 94 % 0.0 mm
01:24 14.5 °C 14.0 °C 1016.8 hPa Calm   9.3 km/h 94 % 0.0 mm
01:29 14.6 °C 14.0 °C 1016.8 hPa WSW 6.4 km/h 6.9 km/h 94 % 0.0 mm
01:34 14.7 °C 14.0 °C 1016.8 hPa WSW 5.5 km/h 6.9 km/h 94 % 0.0 mm
01:39 14.8 °C 14.0 °C 1016.1 hPa West 4.7 km/h 8.7 km/h 94 % 0.0 mm
01:44 14.9 °C 14.0 °C 1016.1 hPa SSW 6.9 km/h 9.3 km/h 95 % 0.0 mm
01:49 14.9 °C 14.0 °C 1016.1 hPa WSW 4.7 km/h 9.3 km/h 94 % 0.0 mm
01:54 15.0 °C 14.0 °C 1016.1 hPa Calm   9.7 km/h 94 % 0.0 mm
02:00 15.0 °C 14.0 °C 1016.1 hPa SW 5.8 km/h 9.7 km/h 94 % 0.0 mm
02:05 15.1 °C 14.0 °C 1016.1 hPa Calm   7.2 km/h 94 % 0.0 mm
02:10 15.2 °C 14.0 °C 1016.1 hPa SSW 4.7 km/h 7.2 km/h 94 % 0.0 mm
02:15 15.3 °C 15.0 °C 1016.1 hPa WSW 4.7 km/h 9.3 km/h 95 % 0.0 mm
02:20 15.4 °C 15.0 °C 1016.1 hPa SW 6.4 km/h 10.1 km/h 95 % 0.0 mm
02:25 15.5 °C 15.0 °C 1016.1 hPa WSW 5.8 km/h 10.1 km/h 95 % 0.0 mm
02:30 15.6 °C 15.0 °C 1016.1 hPa WSW 5.5 km/h 9.7 km/h 95 % 0.0 mm
02:35 15.6 °C 15.0 °C 1016.1 hPa SW 5.0 km/h 10.1 km/h 95 % 0.0 mm
02:40 15.8 °C 15.0 °C 1016.1 hPa SSW 9.7 km/h 11.6 km/h 95 % 0.0 mm
02:45 15.8 °C 15.0 °C 1016.1 hPa WSW 9.3 km/h 11.6 km/h 95 % 0.0 mm
02:50 15.9 °C 15.0 °C 1016.1 hPa WSW 5.8 km/h 10.5 km/h 95 % 0.0 mm
02:55 16.0 °C 15.0 °C 1016.1 hPa WSW 4.3 km/h 10.5 km/h 94 % 0.0 mm
03:02 0.0 °C 15.0 °C 1016.1 hPa SW 7.9 km/h 9.3 km/h 0 % 0.0 mm
03:07 16.1 °C 15.0 °C 1015.1 hPa WSW 5.5 km/h 9.3 km/h 94 % 0.0 mm
03:12 16.1 °C 15.0 °C 1015.1 hPa SW 5.0 km/h 9.7 km/h 94 % 0.0 mm
03:17 16.1 °C 15.0 °C 1015.1 hPa WSW 9.0 km/h 10.1 km/h 94 % 0.0 mm
03:22 16.2 °C 15.0 °C 1015.1 hPa WSW 8.7 km/h 13.7 km/h 94 % 0.0 mm
03:27 16.2 °C 15.0 °C 1015.1 hPa WSW 4.7 km/h 13.7 km/h 94 % 0.0 mm
03:32 16.3 °C 15.0 °C 1015.1 hPa WSW 3.5 km/h 10.1 km/h 94 % 0.0 mm
03:37 16.4 °C 15.0 °C 1015.1 hPa WSW 6.1 km/h 12.2 km/h 93 % 0.0 mm
03:42 16.4 °C 15.0 °C 1015.1 hPa SW 11.9 km/h 13.0 km/h 93 % 0.0 mm
03:47 16.4 °C 15.0 °C 1015.1 hPa WSW 1.4 km/h 13.0 km/h 93 % 0.0 mm
03:52 16.5 °C 16.0 °C 1015.1 hPa SW 4.7 km/h 10.1 km/h 93 % 0.0 mm
03:57 16.4 °C 15.0 °C 1015.1 hPa WSW 6.1 km/h 11.9 km/h 93 % 0.0 mm
04:02 16.4 °C 15.0 °C 1015.1 hPa WSW 5.8 km/h 11.9 km/h 93 % 0.0 mm
04:07 16.3 °C 15.0 °C 1015.1 hPa SW 7.9 km/h 8.7 km/h 93 % 0.0 mm
04:12 16.3 °C 15.0 °C 1015.1 hPa SW 4.0 km/h 9.3 km/h 94 % 0.0 mm
04:17 16.3 °C 15.0 °C 1015.1 hPa WSW 7.9 km/h 9.7 km/h 94 % 0.0 mm
04:23 16.3 °C 15.0 °C 1015.1 hPa WSW 5.8 km/h 9.7 km/h 94 % 0.0 mm
04:28 16.3 °C 15.0 °C 1015.1 hPa WSW 7.6 km/h 9.7 km/h 94 % 0.0 mm
04:33 16.3 °C 15.0 °C 1015.1 hPa WSW 8.7 km/h 9.7 km/h 94 % 0.0 mm
04:38 16.3 °C 15.0 °C 1015.1 hPa WSW 5.0 km/h 10.5 km/h 94 % 0.0 mm
04:43 16.4 °C 16.0 °C 1015.1 hPa SW 7.6 km/h 10.5 km/h 95 % 0.0 mm
04:48 16.4 °C 16.0 °C 1015.1 hPa WSW 9.3 km/h 11.9 km/h 95 % 0.0 mm
04:53 16.4 °C 16.0 °C 1015.1 hPa SW 6.4 km/h 12.2 km/h 95 % 0.0 mm
04:58 16.4 °C 16.0 °C 1015.1 hPa SSW 1.4 km/h 12.2 km/h 95 % 0.0 mm
05:03 16.3 °C 16.0 °C 1015.1 hPa WSW 6.1 km/h 11.6 km/h 96 % 0.0 mm
05:08 16.3 °C 16.0 °C 1015.1 hPa SW 9.3 km/h 10.1 km/h 95 % 0.0 mm
05:13 16.3 °C 16.0 °C 1015.1 hPa SSW 4.0 km/h 11.9 km/h 96 % 0.0 mm
05:18 16.2 °C 16.0 °C 1015.1 hPa SW 9.0 km/h 11.9 km/h 96 % 0.0 mm
05:23 16.2 °C 16.0 °C 1014.1 hPa SW 5.5 km/h 11.6 km/h 96 % 0.0 mm
05:28 16.2 °C 16.0 °C 1014.1 hPa Calm   11.6 km/h 96 % 0.0 mm
05:33 16.2 °C 16.0 °C 1014.1 hPa Calm   11.6 km/h 96 % 0.0 mm
05:38 16.2 °C 16.0 °C 1015.1 hPa SW 8.7 km/h 13.0 km/h 96 % 0.0 mm
05:43 16.2 °C 16.0 °C 1015.1 hPa West 6.1 km/h 13.0 km/h 96 % 0.0 mm
05:48 16.2 °C 16.0 °C 1015.1 hPa SSW 6.9 km/h 10.5 km/h 96 % 0.0 mm
05:53 16.2 °C 16.0 °C 1015.1 hPa Calm   11.9 km/h 96 % 0.0 mm
05:58 16.2 °C 16.0 °C 1015.1 hPa WSW 5.5 km/h 11.9 km/h 96 % 0.0 mm
06:03 16.2 °C 16.0 °C 1015.1 hPa SSW 1.4 km/h 9.3 km/h 97 % 0.0 mm
06:08 16.2 °C 16.0 °C 1014.1 hPa Calm   9.0 km/h 97 % 0.0 mm
06:13 16.2 °C 16.0 °C 1014.1 hPa Calm   9.0 km/h 97 % 0.0 mm
06:18 16.2 °C 16.0 °C 1014.1 hPa WSW 3.2 km/h 9.0 km/h 97 % 0.0 mm
06:24 16.3 °C 16.0 °C 1014.1 hPa SSW 5.0 km/h 10.1 km/h 97 % 0.0 mm
06:29 16.3 °C 16.0 °C 1014.1 hPa Calm   10.1 km/h 97 % 0.0 mm
06:34 16.3 °C 16.0 °C 1014.1 hPa Calm   9.7 km/h 97 % 0.0 mm
06:39 16.3 °C 16.0 °C 1014.1 hPa Calm   10.5 km/h 97 % 0.0 mm
06:44 16.3 °C 16.0 °C 1014.1 hPa Calm   10.5 km/h 97 % 0.0 mm
06:49 16.4 °C 16.0 °C 1014.1 hPa SSW 6.4 km/h 9.7 km/h 97 % 0.0 mm
06:54 16.4 °C 16.0 °C 1014.1 hPa Calm   9.7 km/h 97 % 0.0 mm
06:59 16.4 °C 16.0 °C 1014.1 hPa SSW 2.1 km/h 10.8 km/h 97 % 0.0 mm
07:04 16.4 °C 16.0 °C 1014.1 hPa SW 4.7 km/h 10.8 km/h 97 % 0.0 mm
07:09 16.4 °C 16.0 °C 1015.1 hPa South 6.9 km/h 10.1 km/h 97 % 0.0 mm
07:14 16.3 °C 16.0 °C 1015.1 hPa South 4.3 km/h 6.9 km/h 97 % 0.0 mm
07:19 16.2 °C 16.0 °C 1015.1 hPa South 2.1 km/h 9.0 km/h 97 % 0.0 mm
07:24 16.2 °C 16.0 °C 1014.1 hPa Calm   9.3 km/h 97 % 0.0 mm
07:29 16.2 °C 16.0 °C 1014.1 hPa SW 6.9 km/h 10.5 km/h 97 % 0.0 mm
07:34 16.2 °C 16.0 °C 1014.1 hPa SSW 6.1 km/h 10.5 km/h 97 % 0.0 mm
07:39 16.2 °C 16.0 °C 1014.1 hPa SW 8.7 km/h 9.7 km/h 97 % 0.0 mm
07:44 16.1 °C 16.0 °C 1014.1 hPa SSW 7.2 km/h 11.6 km/h 97 % 0.0 mm
07:49 16.2 °C 16.0 °C 1014.1 hPa SSW 10.1 km/h 11.6 km/h 97 % 0.0 mm
07:54 16.2 °C 16.0 °C 1014.1 hPa SSW 6.9 km/h 12.6 km/h 97 % 0.0 mm
07:59 16.2 °C 16.0 °C 1014.1 hPa SW 9.7 km/h 12.6 km/h 97 % 0.3 mm
08:04 16.2 °C 16.0 °C 1014.1 hPa SSW 3.5 km/h 10.5 km/h 97 % 0.3 mm
08:09 16.3 °C 16.0 °C 1014.1 hPa SW 7.6 km/h 10.5 km/h 98 % 0.3 mm
08:11 16.3 °C 16.0 °C 1014.1 hPa SW 1.8 km/h 10.5 km/h 98 % 0.3 mm
08:16 16.4 °C 16.0 °C 1014.1 hPa SW 5.8 km/h 10.5 km/h 98 % 0.5 mm
08:21 16.3 °C 16.0 °C 1014.1 hPa SW 10.5 km/h 10.8 km/h 98 % 0.8 mm
08:26 16.3 °C 16.0 °C 1014.1 hPa Calm   10.8 km/h 97 % 0.8 mm
08:31 16.3 °C 16.0 °C 1014.1 hPa South 5.5 km/h 10.5 km/h 97 % 0.8 mm
08:36 16.3 °C 16.0 °C 1014.1 hPa SW 4.3 km/h 9.7 km/h 97 % 0.8 mm
08:41 16.5 °C 16.0 °C 1014.1 hPa Calm   13.0 km/h 97 % 1.0 mm
08:46 16.6 °C 17.0 °C 1014.1 hPa SSW 6.1 km/h 13.0 km/h 98 % 1.0 mm
08:51 16.6 °C 17.0 °C 1014.1 hPa SW 6.4 km/h 10.5 km/h 98 % 1.0 mm
08:56 16.7 °C 17.0 °C 1015.1 hPa SSW 10.1 km/h 10.1 km/h 98 % 0.8 mm
09:01 16.8 °C 17.0 °C 1015.1 hPa SSW 7.9 km/h 10.5 km/h 98 % 1.3 mm
09:06 16.8 °C 17.0 °C 1015.1 hPa SSW 5.5 km/h 11.1 km/h 98 % 1.3 mm
09:11 16.9 °C 17.0 °C 1015.1 hPa South 6.4 km/h 11.6 km/h 98 % 1.3 mm
09:16 17.0 °C 17.0 °C 1015.1 hPa SSW 8.7 km/h 11.6 km/h 97 % 1.0 mm
09:21 17.1 °C 17.0 °C 1015.1 hPa WSW 9.7 km/h 12.2 km/h 97 % 0.5 mm
09:26 17.3 °C 17.0 °C 1014.1 hPa SSE 6.9 km/h 12.2 km/h 97 % 0.8 mm
09:31 17.5 °C 17.0 °C 0.0 hPa SSW 5.5 km/h 10.1 km/h 97 % 0.8 mm
09:36 17.5 °C 17.0 °C 1014.1 hPa SSW 6.1 km/h 11.1 km/h 97 % 0.8 mm
09:41 17.5 °C 17.0 °C 1014.1 hPa WSW 6.4 km/h 11.1 km/h 97 % 0.3 mm
09:47 17.6 °C 17.0 °C 1014.1 hPa SSW 8.7 km/h 11.9 km/h 97 % 0.3 mm
09:52 17.7 °C 17.0 °C 1014.1 hPa SSW 6.9 km/h 11.9 km/h 97 % 0.3 mm
09:57 17.7 °C 17.0 °C 1014.1 hPa WSW 1.8 km/h 12.6 km/h 97 % 0.3 mm
10:02 17.8 °C 17.0 °C 1014.1 hPa WSW 8.7 km/h 12.6 km/h 97 % 0.0 mm
10:07 17.8 °C 17.0 °C 1014.1 hPa SSW 6.9 km/h 13.0 km/h 97 % 0.0 mm
10:12 17.9 °C 18.0 °C 1015.1 hPa WSW 9.7 km/h 13.0 km/h 97 % 0.0 mm
10:17 17.8 °C 17.0 °C 1015.1 hPa West 15.4 km/h 16.9 km/h 97 % 0.0 mm
10:22 17.7 °C 17.0 °C 1015.1 hPa WSW 13.7 km/h 23.0 km/h 97 % 0.3 mm
10:27 17.7 °C 17.0 °C 1015.1 hPa West 7.9 km/h 23.0 km/h 97 % 0.3 mm
10:32 17.8 °C 17.0 °C 1015.1 hPa West 6.4 km/h 16.3 km/h 97 % 0.3 mm
10:37 17.7 °C 17.0 °C 1015.1 hPa West 12.6 km/h 14.0 km/h 97 % 0.3 mm
10:42 17.7 °C 17.0 °C 1015.1 hPa West 12.6 km/h 14.0 km/h 97 % 0.3 mm
10:47 17.9 °C 18.0 °C 1015.1 hPa WSW 11.9 km/h 14.0 km/h 97 % 0.3 mm
10:52 17.9 °C 18.0 °C 1015.1 hPa West 16.3 km/h 16.3 km/h 97 % 0.3 mm
10:57 17.8 °C 17.0 °C 1015.1 hPa West 16.6 km/h 16.6 km/h 97 % 0.3 mm
11:02 17.9 °C 18.0 °C 1015.1 hPa West 10.5 km/h 20.1 km/h 97 % 0.3 mm
11:07 18.3 °C 18.0 °C 1015.1 hPa West 7.9 km/h 20.1 km/h 97 % 0.3 mm
11:12 18.5 °C 18.0 °C 1015.1 hPa West 11.9 km/h 15.4 km/h 97 % 0.3 mm
11:17 18.6 °C 18.0 °C 1015.1 hPa West 13.0 km/h 17.2 km/h 96 % 0.3 mm
11:22 18.7 °C 18.0 °C 1015.1 hPa West 9.3 km/h 17.2 km/h 96 % 0.0 mm
11:27 18.8 °C 18.0 °C 1015.1 hPa West 13.0 km/h 16.3 km/h 96 % 0.0 mm
11:32 19.0 °C 19.0 °C 1015.1 hPa SW 10.1 km/h 15.8 km/h 96 % 0.0 mm
11:37 19.0 °C 19.0 °C 1015.1 hPa West 11.9 km/h 14.0 km/h 96 % 0.0 mm
11:42 19.0 °C 18.0 °C 1015.1 hPa West 8.7 km/h 14.0 km/h 95 % 0.0 mm
11:47 19.1 °C 18.0 °C 1015.1 hPa WSW 10.5 km/h 14.0 km/h 95 % 0.0 mm
11:52 19.0 °C 18.0 °C 1015.1 hPa West 10.1 km/h 14.0 km/h 95 % 0.0 mm
11:57 19.1 °C 18.0 °C 1015.1 hPa West 6.9 km/h 13.7 km/h 95 % 0.0 mm
12:02 19.1 °C 18.0 °C 1015.1 hPa WSW 13.7 km/h 14.8 km/h 95 % 0.0 mm
12:07 19.2 °C 19.0 °C 1015.1 hPa WSW 10.1 km/h 16.3 km/h 95 % 0.0 mm
12:12 19.9 °C 19.0 °C 1015.1 hPa WSW 14.8 km/h 17.2 km/h 95 % 0.0 mm
12:17 20.3 °C 19.0 °C 1015.1 hPa West 10.5 km/h 17.2 km/h 94 % 0.0 mm
12:23 20.3 °C 19.0 °C 1015.1 hPa WSW 12.2 km/h 19.5 km/h 93 % 0.0 mm
12:28 20.1 °C 19.0 °C 1015.1 hPa West 9.3 km/h 19.5 km/h 92 % 0.0 mm
12:33 19.8 °C 18.0 °C 1015.1 hPa SW 8.7 km/h 17.7 km/h 92 % 0.0 mm
12:38 19.6 °C 18.0 °C 1015.1 hPa West 13.0 km/h 17.7 km/h 92 % 0.0 mm
12:43 19.2 °C 18.0 °C 1015.1 hPa West 13.0 km/h 16.9 km/h 92 % 0.0 mm
12:48 19.7 °C 19.0 °C 1015.1 hPa West 8.7 km/h 15.1 km/h 94 % 0.0 mm
12:53 19.9 °C 19.0 °C 1015.1 hPa WSW 8.7 km/h 13.7 km/h 94 % 0.0 mm
12:58 20.0 °C 19.0 °C 1015.1 hPa West 12.6 km/h 16.6 km/h 93 % 0.0 mm
13:03 20.3 °C 19.0 °C 1015.1 hPa WSW 17.2 km/h 21.2 km/h 91 % 0.0 mm
13:08 20.8 °C 19.0 °C 1015.1 hPa WSW 13.0 km/h 21.2 km/h 90 % 0.0 mm
13:13 20.7 °C 19.0 °C 1015.1 hPa WSW 13.7 km/h 20.9 km/h 89 % 0.0 mm
13:18 20.5 °C 19.0 °C 1015.1 hPa West 13.0 km/h 23.3 km/h 88 % 0.0 mm
13:23 20.5 °C 19.0 °C 1014.1 hPa West 17.2 km/h 23.3 km/h 87 % 0.0 mm
13:28 20.5 °C 19.0 °C 1014.1 hPa West 15.4 km/h 19.1 km/h 87 % 0.0 mm
13:33 21.4 °C 19.0 °C 1014.1 hPa West 16.6 km/h 17.7 km/h 87 % 0.0 mm
13:38 22.0 °C 20.0 °C 1015.1 hPa SW 13.0 km/h 18.3 km/h 86 % 0.0 mm
13:43 21.8 °C 19.0 °C 1015.1 hPa WSW 14.3 km/h 23.0 km/h 82 % 0.0 mm
13:48 21.4 °C 18.0 °C 1015.1 hPa West 11.9 km/h 27.0 km/h 79 % 0.0 mm
13:53 21.1 °C 18.0 °C 1015.1 hPa West 10.5 km/h 27.0 km/h 80 % 0.3 mm
13:57 21.0 °C 18.0 °C 1015.1 hPa WSW 29.9 km/h 29.9 km/h 81 % 0.8 mm
14:02 20.8 °C 18.0 °C 1015.1 hPa WSW 19.5 km/h 29.9 km/h 82 % 0.8 mm
14:07 20.9 °C 18.0 °C 1015.1 hPa West 13.7 km/h 29.9 km/h 81 % 0.8 mm
14:12 21.0 °C 18.0 °C 1015.1 hPa West 16.3 km/h 24.5 km/h 81 % 0.8 mm
14:17 21.1 °C 18.0 °C 1015.1 hPa SW 10.5 km/h 23.3 km/h 82 % 0.8 mm
14:22 21.1 °C 18.0 °C 1015.1 hPa West 16.6 km/h 19.5 km/h 82 % 0.8 mm
14:27 21.0 °C 18.0 °C 1015.1 hPa West 17.2 km/h 20.1 km/h 82 % 0.5 mm
14:37 20.8 °C 17.0 °C 1015.1 hPa WSW 21.2 km/h 21.2 km/h 81 % 0.5 mm
14:42 20.9 °C 18.0 °C 1015.1 hPa West 16.9 km/h 21.2 km/h 81 % 0.5 mm
14:47 20.7 °C 17.0 °C 1015.1 hPa WSW 16.3 km/h 21.2 km/h 81 % 0.5 mm
14:52 20.5 °C 17.0 °C 1015.1 hPa WSW 17.7 km/h 21.2 km/h 81 % 0.3 mm
14:57 20.3 °C 17.0 °C 1015.1 hPa West 12.6 km/h 20.6 km/h 82 % 0.0 mm
15:02 20.2 °C 17.0 °C 1015.1 hPa WSW 14.8 km/h 17.2 km/h 82 % 0.0 mm
15:08 20.1 °C 17.0 °C 1015.1 hPa WSW 12.6 km/h 17.7 km/h 84 % 0.0 mm
15:13 19.9 °C 18.0 °C 1015.1 hPa WSW 15.8 km/h 17.7 km/h 85 % 0.0 mm
15:18 19.6 °C 18.0 °C 1015.1 hPa WSW 12.6 km/h 17.7 km/h 87 % 0.0 mm
15:23 19.5 °C 18.0 °C 1015.1 hPa WSW 9.7 km/h 17.7 km/h 88 % 0.0 mm
15:28 19.5 °C 18.0 °C 1015.1 hPa SW 10.1 km/h 14.0 km/h 89 % 0.0 mm
15:33 19.6 °C 18.0 °C 1015.1 hPa WSW 9.3 km/h 13.0 km/h 90 % 0.0 mm
15:38 19.4 °C 18.0 °C 1015.1 hPa West 13.0 km/h 20.1 km/h 91 % 0.0 mm
15:43 19.2 °C 18.0 °C 1015.1 hPa West 11.9 km/h 20.1 km/h 92 % 0.0 mm
15:48 19.2 °C 18.0 °C 1015.1 hPa WSW 11.6 km/h 19.8 km/h 92 % 0.0 mm
15:54 19.2 °C 18.0 °C 1016.1 hPa West 9.7 km/h 15.4 km/h 93 % 0.0 mm
15:59 19.1 °C 18.0 °C 1016.1 hPa West 9.7 km/h 17.7 km/h 93 % 0.0 mm
16:04 19.0 °C 18.0 °C 1016.1 hPa WSW 14.0 km/h 17.7 km/h 94 % 0.0 mm
16:09 18.8 °C 18.0 °C 1015.1 hPa WSW 13.0 km/h 20.1 km/h 94 % 0.0 mm
16:14 18.8 °C 18.0 °C 1015.1 hPa WSW 10.5 km/h 20.1 km/h 95 % 0.0 mm
16:19 19.2 °C 19.0 °C 1015.1 hPa WSW 9.3 km/h 14.0 km/h 95 % 0.0 mm
16:24 19.5 °C 19.0 °C 1015.1 hPa WSW 9.7 km/h 10.5 km/h 95 % 0.0 mm
16:29 19.5 °C 19.0 °C 1015.1 hPa WSW 6.9 km/h 14.3 km/h 95 % 0.0 mm
16:34 19.5 °C 19.0 °C 1015.1 hPa WSW 6.4 km/h 14.3 km/h 95 % 0.0 mm
16:39 19.4 °C 19.0 °C 1015.1 hPa SW 10.1 km/h 16.6 km/h 95 % 0.0 mm
16:44 19.4 °C 18.0 °C 1015.1 hPa WSW 7.9 km/h 16.9 km/h 94 % 0.0 mm
16:49 19.4 °C 18.0 °C 1015.1 hPa West 9.3 km/h 16.9 km/h 94 % 0.0 mm
16:54 19.3 °C 18.0 °C 1015.1 hPa WSW 11.1 km/h 16.9 km/h 94 % 0.0 mm
16:59 19.3 °C 18.0 °C 1015.1 hPa West 11.9 km/h 16.9 km/h 94 % 0.0 mm
17:04 19.3 °C 18.0 °C 1015.1 hPa West 16.6 km/h 16.6 km/h 94 % 0.0 mm
17:09 19.3 °C 18.0 °C 1015.1 hPa WSW 10.5 km/h 19.8 km/h 94 % 0.0 mm
17:14 19.4 °C 18.0 °C 1015.1 hPa WSW 12.6 km/h 19.8 km/h 94 % 0.0 mm
17:19 19.4 °C 18.0 °C 1015.1 hPa WSW 12.2 km/h 17.7 km/h 94 % 0.0 mm
17:24 19.6 °C 19.0 °C 1015.1 hPa WSW 6.1 km/h 20.9 km/h 93 % 0.0 mm
17:29 19.8 °C 19.0 °C 1015.1 hPa WSW 11.6 km/h 20.9 km/h 93 % 0.0 mm
17:34 19.9 °C 19.0 °C 1015.1 hPa WSW 11.9 km/h 17.7 km/h 92 % 0.0 mm
17:39 20.0 °C 19.0 °C 1015.1 hPa SSW 11.9 km/h 17.7 km/h 91 % 0.0 mm
17:44 20.1 °C 19.0 °C 1015.1 hPa SSW 10.5 km/h 15.8 km/h 91 % 0.0 mm
17:49 20.4 °C 19.0 °C 1015.1 hPa WSW 10.1 km/h 14.8 km/h 91 % 0.0 mm
17:54 20.9 °C 19.0 °C 1015.1 hPa SSW 12.6 km/h 17.7 km/h 90 % 0.0 mm
18:00 20.6 °C 19.0 °C 1015.1 hPa WSW 16.6 km/h 17.7 km/h 88 % 0.0 mm
18:05 20.5 °C 18.0 °C 1015.1 hPa WSW 11.6 km/h 20.1 km/h 86 % 0.0 mm
18:06 20.5 °C 18.0 °C 1015.1 hPa WSW 13.7 km/h 20.1 km/h 86 % 0.0 mm
18:12 21.2 °C 19.0 °C 1015.1 hPa WSW 9.7 km/h 20.1 km/h 86 % 0.0 mm
18:17 21.8 °C 19.0 °C 1015.1 hPa West 9.7 km/h 17.7 km/h 84 % 0.0 mm
18:22 22.0 °C 19.0 °C 1015.1 hPa WSW 15.8 km/h 20.1 km/h 81 % 0.0 mm
18:27 21.5 °C 18.0 °C 1015.1 hPa West 13.0 km/h 20.1 km/h 79 % 0.0 mm
18:32 21.2 °C 18.0 °C 1015.1 hPa West 14.0 km/h 16.9 km/h 81 % 0.0 mm
18:37 20.8 °C 17.0 °C 1015.1 hPa WSW 12.6 km/h 16.9 km/h 79 % 0.0 mm
18:42 20.8 °C 17.0 °C 1015.1 hPa West 12.6 km/h 16.9 km/h 79 % 0.0 mm
18:47 20.9 °C 17.0 °C 1015.1 hPa West 11.9 km/h 21.2 km/h 79 % 0.0 mm
18:52 21.0 °C 17.0 °C 1015.1 hPa WSW 9.0 km/h 21.2 km/h 79 % 0.0 mm
18:57 21.2 °C 17.0 °C 1015.1 hPa West 16.3 km/h 17.7 km/h 78 % 0.0 mm
19:02 21.1 °C 17.0 °C 1015.1 hPa West 17.2 km/h 20.9 km/h 76 % 0.0 mm
19:07 21.0 °C 17.0 °C 1015.1 hPa West 16.6 km/h 20.9 km/h 75 % 0.0 mm
19:12 20.9 °C 17.0 °C 1015.1 hPa WSW 9.7 km/h 20.9 km/h 75 % 0.0 mm
19:17 20.7 °C 16.0 °C 1015.1 hPa West 14.0 km/h 20.9 km/h 76 % 0.0 mm
19:22 20.6 °C 17.0 °C 1015.1 hPa WSW 13.7 km/h 20.1 km/h 77 % 0.0 mm
19:28 20.8 °C 17.0 °C 1015.1 hPa WSW 16.6 km/h 20.6 km/h 77 % 0.0 mm
19:33 20.5 °C 16.0 °C 1015.1 hPa West 20.6 km/h 21.6 km/h 75 % 0.0 mm
19:38 20.3 °C 16.0 °C 1015.1 hPa West 14.8 km/h 21.9 km/h 74 % 0.0 mm
19:43 20.4 °C 16.0 °C 1015.1 hPa West 13.0 km/h 24.8 km/h 75 % 0.0 mm
19:48 20.4 °C 15.0 °C 1015.1 hPa West 17.7 km/h 25.3 km/h 73 % 0.0 mm
19:53 20.2 °C 15.0 °C 1015.1 hPa WSW 17.7 km/h 25.6 km/h 73 % 0.0 mm
19:58 19.9 °C 15.0 °C 1015.1 hPa West 17.7 km/h 25.6 km/h 74 % 0.0 mm
20:03 19.9 °C 15.0 °C 1015.1 hPa West 10.5 km/h 20.6 km/h 74 % 0.0 mm
20:08 19.8 °C 15.0 °C 1016.1 hPa West 17.2 km/h 21.2 km/h 75 % 0.0 mm
20:13 19.6 °C 15.0 °C 1016.1 hPa West 10.1 km/h 21.2 km/h 76 % 0.0 mm
20:18 19.4 °C 15.0 °C 1016.1 hPa WSW 10.1 km/h 17.2 km/h 77 % 0.0 mm
20:23 19.3 °C 15.0 °C 1016.8 hPa WSW 12.6 km/h 16.6 km/h 78 % 0.0 mm
20:28 19.1 °C 15.0 °C 1016.8 hPa WSW 9.7 km/h 17.7 km/h 78 % 0.0 mm
20:33 18.9 °C 16.0 °C 1016.8 hPa WSW 6.9 km/h 17.7 km/h 80 % 0.0 mm
20:38 18.7 °C 15.0 °C 1016.8 hPa WSW 11.6 km/h 14.0 km/h 80 % 0.0 mm
20:44 18.6 °C 15.0 °C 1016.8 hPa West 14.0 km/h 15.8 km/h 81 % 0.0 mm
20:49 18.4 °C 15.0 °C 1016.8 hPa West 19.8 km/h 23.3 km/h 81 % 0.0 mm
20:54 18.3 °C 15.0 °C 1016.8 hPa West 17.7 km/h 23.3 km/h 81 % 0.0 mm
20:59 18.1 °C 15.0 °C 1016.8 hPa WSW 7.6 km/h 19.8 km/h 82 % 0.0 mm
21:04 17.9 °C 15.0 °C 1016.8 hPa West 13.7 km/h 17.7 km/h 83 % 0.0 mm
21:09 17.7 °C 15.0 °C 1018.2 hPa WSW 7.9 km/h 13.7 km/h 84 % 0.0 mm
21:14 17.5 °C 15.0 °C 1018.2 hPa West 11.6 km/h 14.0 km/h 85 % 0.0 mm
21:19 17.4 °C 15.0 °C 1018.2 hPa WSW 5.8 km/h 14.0 km/h 86 % 0.0 mm
21:24 17.3 °C 15.0 °C 1016.8 hPa SW 9.7 km/h 12.6 km/h 86 % 0.0 mm
21:29 17.2 °C 15.0 °C 1016.8 hPa WSW 6.1 km/h 10.5 km/h 87 % 0.0 mm
21:34 17.2 °C 15.0 °C 1016.8 hPa West 7.9 km/h 10.5 km/h 88 % 0.0 mm
21:39 17.2 °C 15.0 °C 1016.8 hPa WSW 6.1 km/h 11.6 km/h 88 % 0.0 mm
21:44 17.2 °C 16.0 °C 1016.8 hPa WSW 1.4 km/h 11.6 km/h 89 % 0.0 mm
21:49 17.2 °C 16.0 °C 1016.8 hPa WSW 10.1 km/h 11.6 km/h 89 % 0.0 mm
21:54 17.2 °C 16.0 °C 1016.8 hPa WSW 7.6 km/h 10.5 km/h 89 % 0.0 mm
21:59 17.1 °C 15.0 °C 1016.8 hPa WSW 4.7 km/h 12.6 km/h 88 % 0.0 mm
22:04 17.0 °C 15.0 °C 1016.8 hPa West 12.6 km/h 12.6 km/h 88 % 0.0 mm
22:09 17.0 °C 15.0 °C 1016.8 hPa WSW 9.7 km/h 15.8 km/h 87 % 0.0 mm
22:14 16.9 °C 15.0 °C 1016.8 hPa WSW 6.9 km/h 15.8 km/h 87 % 0.0 mm
22:19 16.8 °C 15.0 °C 1016.8 hPa WSW 9.0 km/h 13.7 km/h 87 % 0.0 mm
22:24 16.7 °C 15.0 °C 1016.8 hPa West 12.6 km/h 14.0 km/h 87 % 0.0 mm
22:29 16.7 °C 15.0 °C 1016.8 hPa West 10.5 km/h 14.0 km/h 87 % 0.0 mm
22:34 16.6 °C 14.0 °C 1016.8 hPa WSW 6.4 km/h 14.0 km/h 86 % 0.0 mm
22:39 16.5 °C 14.0 °C 1016.8 hPa West 9.0 km/h 11.9 km/h 86 % 0.0 mm
22:44 16.3 °C 14.0 °C 1016.8 hPa WSW 9.0 km/h 11.9 km/h 87 % 0.0 mm
22:49 16.1 °C 14.0 °C 1016.8 hPa Calm   10.1 km/h 87 % 0.0 mm
22:54 15.9 °C 14.0 °C 1016.8 hPa WSW 6.1 km/h 9.0 km/h 87 % 0.0 mm
22:59 15.7 °C 14.0 °C 1016.8 hPa WSW 6.1 km/h 9.0 km/h 88 % 0.0 mm
23:04 15.6 °C 14.0 °C 1016.8 hPa WSW 6.9 km/h 10.5 km/h 89 % 0.0 mm
23:09 15.6 °C 14.0 °C 1016.8 hPa WSW 8.7 km/h 10.5 km/h 89 % 0.0 mm
23:14 15.6 °C 14.0 °C 1016.8 hPa SSW 9.0 km/h 10.5 km/h 89 % 0.0 mm
23:19 15.5 °C 14.0 °C 1016.8 hPa WSW 9.3 km/h 11.1 km/h 89 % 0.0 mm
23:24 15.4 °C 14.0 °C 1018.2 hPa WSW 7.6 km/h 11.1 km/h 90 % 0.0 mm
23:30 15.3 °C 14.0 °C 1018.2 hPa West 7.6 km/h 10.5 km/h 90 % 0.0 mm
23:35 15.2 °C 14.0 °C 1018.2 hPa West 9.3 km/h 12.6 km/h 90 % 0.0 mm
23:40 15.0 °C 13.0 °C 1018.2 hPa West 7.6 km/h 12.6 km/h 90 % 0.0 mm
23:45 15.0 °C 14.0 °C 1018.2 hPa WSW 8.7 km/h 10.5 km/h 91 % 0.0 mm
23:50 14.9 °C 14.0 °C 1018.2 hPa SW 7.9 km/h 8.7 km/h 91 % 0.0 mm
23:55 14.7 °C 13.0 °C 1018.2 hPa Calm   8.7 km/h 91 % 0.0 mm
Le Gheer Warneton
Courtoisie de Weather Underground - 2.25 mb

Mise a jour : 17/12/2017 22:17:13
Généré par Cumulus 1.9.4 (1099)